Precipitable_Water
0.75 0.80 0.77 0.70 0.67 0.64 0.61 0.62 0.64 0.67 0.68 0.66 0.63 0.60 0.56 0.54 0.52 0.45 0.40 0.40 0.38 0.39 0.42 0.42 0.43 0.39 0.31 0.18 0.16 0.21 0.21 0.18 0.17 0.14 0.15 0.12 0.11 0.11 0.09 0.09 0.10 0.12 0.15 0.21 0.26 0.33 0.38
0.76 0.81 0.75 0.69 0.66 0.64 0.64 0.65 0.66 0.69 0.68 0.65 0.61 0.58 0.54 0.50 0.47 0.40 0.38 0.37 0.36 0.36 0.31 0.31 0.28 0.29 0.20 0.13 0.19 0.19 0.17 0.15 0.13 0.14 0.14 0.13 0.11 0.11 0.09 0.10 0.10 0.11 0.12 0.12 0.14 0.16 0.20
0.80 0.79 0.74 0.70 0.64 0.64 0.64 0.66 0.70 0.68 0.66 0.62 0.60 0.57 0.53 0.48 0.42 0.36 0.36 0.36 0.36 0.38 0.32 0.37 0.37 0.33 0.15 0.13 0.18 0.17 0.16 0.15 0.14 0.12 0.11 0.12 0.13 0.12 0.10 0.07 0.08 0.10 0.10 0.12 0.12 0.13 0.17
0.83 0.78 0.74 0.70 0.67 0.64 0.63 0.70 0.70 0.67 0.63 0.60 0.58 0.54 0.52 0.46 0.37 0.33 0.35 0.33 0.38 0.44 0.45 0.40 0.30 0.23 0.14 0.17 0.18 0.16 0.16 0.13 0.13 0.13 0.11 0.12 0.12 0.11 0.10 0.11 0.10 0.10 0.11 0.08 0.10 0.11 0.17
0.80 0.77 0.74 0.71 0.68 0.66 0.69 0.72 0.70 0.65 0.61 0.57 0.56 0.51 0.49 0.44 0.35 0.32 0.32 0.30 0.31 0.30 0.28 0.25 0.21 0.16 0.10 0.17 0.14 0.16 0.15 0.13 0.14 0.14 0.15 0.14 0.14 0.12 0.12 0.10 0.10 0.11 0.09 0.09 0.09 0.11 0.11
0.78 0.76 0.76 0.70 0.68 0.66 0.71 0.71 0.67 0.65 0.58 0.55 0.54 0.50 0.47 0.41 0.34 0.31 0.31 0.29 0.27 0.24 0.25 0.24 0.15 0.13 0.12 0.12 0.15 0.14 0.16 0.14 0.12 0.13 0.11 0.10 0.12 0.11 0.10 0.08 0.06 0.07 0.07 0.08 0.07 0.09 0.10
0.78 0.75 0.75 0.69 0.68 0.67 0.71 0.69 0.67 0.63 0.57 0.54 0.51 0.48 0.44 0.40 0.34 0.30 0.30 0.25 0.22 0.21 0.20 0.14 0.13 0.11 0.12 0.15 0.18 0.13 0.14 0.12 0.14 0.11 0.08 0.10 0.09 0.07 0.08 0.08 0.09 0.10 0.10 0.10 0.10 0.12 0.11
0.78 0.77 0.72 0.69 0.68 0.68 0.70 0.69 0.66 0.60 0.56 0.52 0.48 0.46 0.42 0.37 0.34 0.30 0.29 0.24 0.24 0.25 0.16 0.18 0.16 0.13 0.14 0.16 0.13 0.12 0.14 0.11 0.12 0.09 0.11 0.10 0.08 0.09 0.10 0.11 0.11 0.11 0.11 0.11 0.12 0.14 0.13
0.78 0.75 0.70 0.71 0.67 0.68 0.69 0.68 0.64 0.59 0.56 0.50 0.47 0.44 0.38 0.36 0.35 0.31 0.27 0.27 0.34 0.32 0.19 0.15 0.15 0.13 0.14 0.16 0.13 0.11 0.13 0.12 0.11 0.10 0.10 0.10 0.10 0.12 0.11 0.12 0.11 0.12 0.11 0.12 0.12 0.13 0.13
0.75 0.71 0.70 0.70 0.67 0.69 0.69 0.65 0.61 0.58 0.54 0.50 0.47 0.43 0.36 0.36 0.34 0.28 0.26 0.34 0.36 0.34 0.16 0.13 0.12 0.14 0.14 0.13 0.11 0.13 0.15 0.13 0.13 0.11 0.12 0.13 0.13 0.12 0.12 0.12 0.13 0.11 0.15 0.14 0.14 0.12 0.09
0.73 0.68 0.71 0.68 0.67 0.71 0.69 0.63 0.58 0.56 0.54 0.51 0.47 0.42 0.37 0.33 0.28 0.24 0.27 0.37 0.36 0.29 0.12 0.13 0.12 0.16 0.14 0.11 0.11 0.11 0.16 0.14 0.11 0.12 0.14 0.12 0.12 0.12 0.12 0.13 0.15 0.14 0.17 0.16 0.16 0.14 0.14
0.71 0.70 0.69 0.66 0.68 0.71 0.67 0.61 0.57 0.56 0.54 0.49 0.46 0.41 0.37 0.34 0.32 0.31 0.35 0.38 0.29 0.19 0.11 0.11 0.12 0.11 0.11 0.11 0.11 0.12 0.14 0.16 0.15 0.13 0.15 0.14 0.16 0.15 0.16 0.17 0.18 0.18 0.16 0.15 0.13 0.13 0.09
0.70 0.72 0.66 0.64 0.70 0.73 0.65 0.59 0.56 0.56 0.53 0.46 0.46 0.41 0.36 0.35 0.28 0.34 0.37 0.30 0.19 0.11 0.11 0.11 0.10 0.12 0.11 0.09 0.10 0.11 0.11 0.12 0.10 0.08 0.09 0.13 0.14 0.16 0.18 0.16 0.18 0.17 0.14 0.08 0.08 0.10 0.09
0.72 0.71 0.66 0.68 0.72 0.70 0.62 0.58 0.57 0.57 0.51 0.45 0.44 0.39 0.38 0.35 0.36 0.33 0.31 0.20 0.13 0.12 0.12 0.13 0.13 0.12 0.09 0.10 0.10 0.12 0.11 0.09 0.11 0.13 0.11 0.10 0.10 0.14 0.17 0.17 0.16 0.15 0.15 0.10 0.06 0.07 0.08
0.74 0.67 0.65 0.68 0.73 0.68 0.61 0.59 0.59 0.55 0.49 0.45 0.42 0.39 0.36 0.34 0.35 0.32 0.25 0.17 0.13 0.13 0.15 0.14 0.13 0.10 0.09 0.10 0.11 0.11 0.11 0.10 0.11 0.14 0.11 0.11 0.11 0.16 0.17 0.19 0.19 0.14 0.12 0.16 0.11 0.12 0.09
0.73 0.66 0.66 0.69 0.72 0.67 0.62 0.60 0.59 0.54 0.48 0.45 0.41 0.36 0.33 0.36 0.35 0.33 0.24 0.17 0.16 0.17 0.17 0.16 0.11 0.12 0.10 0.10 0.10 0.11 0.11 0.13 0.10 0.14 0.17 0.15 0.11 0.15 0.17 0.20 0.21 0.16 0.18 0.11 0.11 0.07 0.07
0.72 0.68 0.69 0.71 0.73 0.66 0.64 0.61 0.58 0.53 0.48 0.45 0.40 0.33 0.32 0.35 0.36 0.27 0.21 0.18 0.18 0.20 0.19 0.15 0.13 0.12 0.12 0.10 0.11 0.11 0.12 0.14 0.15 0.13 0.16 0.17 0.16 0.13 0.17 0.15 0.15 0.15 0.13 0.14 0.13 0.12 0.08
0.77 0.72 0.72 0.73 0.74 0.68 0.65 0.61 0.59 0.54 0.48 0.46 0.39 0.30 0.33 0.37 0.28 0.26 0.21 0.18 0.20 0.19 0.20 0.17 0.16 0.14 0.13 0.13 0.11 0.11 0.11 0.13 0.16 0.15 0.13 0.18 0.16 0.13 0.13 0.19 0.21 0.18 0.15 0.15 0.09 0.09 0.11
0.79 0.75 0.75 0.76 0.76 0.70 0.65 0.61 0.59 0.56 0.51 0.47 0.37 0.33 0.35 0.34 0.25 0.23 0.23 0.19 0.18 0.17 0.16 0.16 0.14 0.15 0.15 0.13 0.10 0.11 0.13 0.16 0.16 0.14 0.13 0.17 0.13 0.11 0.11 0.17 0.20 0.16 0.16 0.16 0.15 0.13 0.11
0.80 0.80 0.80 0.80 0.76 0.71 0.64 0.61 0.59 0.58 0.53 0.47 0.40 0.32 0.32 0.33 0.31 0.26 0.21 0.17 0.16 0.18 0.16 0.16 0.13 0.15 0.13 0.10 0.12 0.10 0.12 0.15 0.17 0.15 0.17 0.17 0.14 0.14 0.11 0.13 0.17 0.14 0.15 0.16 0.15 0.11 0.11
0.82 0.83 0.82 0.81 0.78 0.72 0.66 0.63 0.60 0.59 0.54 0.49 0.40 0.32 0.31 0.27 0.28 0.26 0.23 0.18 0.16 0.13 0.16 0.15 0.13 0.13 0.12 0.10 0.10 0.10 0.13 0.14 0.15 0.14 0.14 0.15 0.11 0.14 0.16 0.18 0.19 0.16 0.15 0.15 0.14 0.14 0.11
0.85 0.85 0.83 0.83 0.79 0.75 0.69 0.64 0.61 0.59 0.56 0.45 0.38 0.35 0.35 0.31 0.29 0.27 0.23 0.18 0.15 0.15 0.15 0.12 0.12 0.12 0.12 0.10 0.11 0.10 0.13 0.13 0.12 0.13 0.12 0.14 0.11 0.14 0.16 0.20 0.19 0.16 0.15 0.16 0.16 0.16 0.15
0.88 0.87 0.84 0.85 0.81 0.77 0.71 0.65 0.63 0.59 0.56 0.47 0.45 0.43 0.39 0.31 0.28 0.25 0.20 0.19 0.16 0.17 0.16 0.15 0.14 0.13 0.11 0.11 0.15 0.15 0.16 0.16 0.15 0.14 0.11 0.12 0.12 0.12 0.11 0.16 0.17 0.14 0.15 0.16 0.17 0.18 0.17
0.92 0.87 0.86 0.86 0.82 0.78 0.72 0.67 0.66 0.61 0.57 0.50 0.47 0.43 0.37 0.29 0.26 0.22 0.21 0.19 0.17 0.16 0.15 0.16 0.16 0.13 0.15 0.18 0.17 0.16 0.14 0.14 0.15 0.15 0.15 0.11 0.11 0.12 0.12 0.14 0.11 0.17 0.19 0.20 0.18 0.19 0.19
0.94 0.90 0.88 0.86 0.84 0.79 0.73 0.67 0.66 0.67 0.61 0.55 0.52 0.46 0.37 0.30 0.26 0.24 0.21 0.19 0.18 0.18 0.16 0.15 0.16 0.17 0.19 0.16 0.13 0.10 0.10 0.10 0.12 0.13 0.13 0.12 0.11 0.10 0.11 0.12 0.16 0.18 0.17 0.18 0.18 0.17 0.22
0.98 0.91 0.88 0.87 0.87 0.79 0.73 0.67 0.65 0.68 0.64 0.59 0.54 0.52 0.41 0.32 0.25 0.24 0.20 0.19 0.15 0.16 0.16 0.16 0.19 0.21 0.18 0.16 0.13 0.08 0.07 0.08 0.09 0.10 0.14 0.12 0.12 0.11 0.10 0.10 0.11 0.16 0.18 0.21 0.22 0.16 0.22
1.05 0.96 0.93 0.89 0.91 0.79 0.74 0.70 0.66 0.66 0.66 0.61 0.56 0.54 0.45 0.32 0.29 0.26 0.22 0.18 0.19 0.18 0.16 0.17 0.17 0.15 0.19 0.13 0.10 0.08 0.08 0.10 0.08 0.09 0.09 0.09 0.09 0.08 0.09 0.10 0.14 0.17 0.18 0.21 0.14 0.16 0.24
1.09 1.00 0.96 0.92 0.90 0.81 0.75 0.75 0.67 0.66 0.69 0.63 0.57 0.58 0.45 0.34 0.31 0.28 0.26 0.21 0.21 0.20 0.15 0.19 0.18 0.17 0.15 0.11 0.10 0.10 0.09 0.11 0.10 0.10 0.11 0.09 0.08 0.08 0.09 0.09 0.09 0.17 0.17 0.16 0.20 0.24 0.25
1.10 1.03 0.98 0.96 0.92 0.83 0.80 0.72 0.67 0.67 0.69 0.66 0.54 0.58 0.52 0.37 0.32 0.31 0.29 0.29 0.27 0.26 0.22 0.22 0.18 0.17 0.17 0.14 0.13 0.13 0.10 0.11 0.10 0.08 0.14 0.09 0.11 0.09 0.10 0.10 0.15 0.17 0.18 0.22 0.24 0.25 0.27
Wind_Speed
5 6 7 8 8 9 10 12 14 16 17 19 21 23 23 24 25 26 28 27 27 27 27 25 26 26 27 27 31 36 37 39 41 42 41 43 44 44 45 46 49 52 55 56 57 56 56
6 6 7 8 8 9 10 12 14 16 17 19 21 22 24 25 26 28 29 28 28 26 26 26 27 28 27 28 35 35 40 42 42 43 43 44 44 47 50 49 50 52 56 57 57 58 58
6 7 7 8 8 9 10 12 14 16 18 20 21 23 25 27 27 29 30 28 28 26 25 29 29 29 31 31 34 40 42 43 44 45 45 46 47 46 51 54 47 48 52 52 54 55 54
6 7 7 7 8 9 11 12 14 16 18 20 22 24 26 27 28 30 29 28 28 28 28 30 31 31 28 34 40 41 45 46 46 44 46 47 46 48 45 43 44 43 41 41 39 39 43
7 7 7 7 8 9 11 12 14 16 18 20 22 24 26 28 29 31 29 29 28 28 31 32 32 29 27 41 43 44 47 48 49 45 45 42 43 38 34 32 30 31 32 35 38 37 40
8 7 8 7 8 9 11 13 14 17 18 21 23 25 27 29 29 32 30 28 29 33 31 31 34 26 37 44 44 46 48 49 43 43 40 37 31 28 24 24 26 29 30 32 35 35 37
7 7 7 6 7 9 11 13 15 17 19 21 23 25 27 29 29 32 31 30 31 30 34 31 28 32 41 46 42 47 49 47 41 38 36 31 25 23 25 24 25 26 27 30 30 28 30
7 7 6 6 7 9 12 13 15 17 20 22 24 26 28 29 28 33 32 30 31 32 30 30 29 37 42 45 42 47 49 43 40 36 33 25 18 23 25 25 25 25 27 28 29 27 26
7 5 5 6 8 10 12 14 16 18 20 23 25 27 30 30 28 33 33 33 32 31 30 27 35 39 43 44 41 46 48 42 37 33 30 21 21 24 25 26 24 24 25 27 29 29 28
6 5 6 7 8 10 12 14 16 19 21 23 25 27 30 30 29 34 33 35 32 31 29 28 36 38 43 43 36 42 43 39 33 31 26 19 23 25 24 24 25 26 27 27 28 25 21
6 6 7 8 9 11 13 14 16 19 21 24 25 27 29 30 31 33 35 34 32 30 27 36 36 40 43 39 42 38 40 37 31 30 22 22 24 21 21 23 26 27 29 27 28 23 18
7 7 8 8 9 11 13 14 16 19 22 25 26 27 29 30 31 34 34 33 31 28 28 33 37 41 43 38 40 38 37 35 25 26 19 23 16 17 20 24 27 28 30 28 17 10 7
7 7 8 8 9 11 13 14 17 20 23 25 25 27 29 31 32 36 33 33 30 29 36 36 39 42 41 41 38 38 38 32 29 23 26 24 17 15 18 26 25 30 28 20 12 7 9
8 8 7 7 9 11 13 15 18 21 24 26 25 26 29 33 34 34 33 32 30 32 34 38 41 40 35 40 37 38 34 30 27 24 22 21 17 19 26 25 24 26 26 17 13 14 15
8 7 7 8 9 11 13 16 19 22 25 26 24 26 29 34 34 32 32 31 32 34 36 40 41 36 35 36 37 35 33 25 25 22 20 18 15 25 21 22 25 25 26 23 13 16 13
8 7 6 7 9 11 14 17 20 23 26 26 24 25 30 35 32 32 32 30 31 34 37 37 36 35 37 38 35 36 29 23 23 21 22 16 19 19 26 19 20 25 25 19 14 11 15
9 8 7 8 10 13 15 18 21 24 27 25 25 25 31 33 31 31 31 31 33 34 36 35 35 35 34 37 37 32 27 24 20 21 22 20 15 20 23 22 21 26 26 18 13 9 12
11 9 9 10 12 13 16 19 22 25 27 25 25 25 33 32 29 31 31 33 34 34 34 34 34 33 33 36 32 29 26 24 24 22 19 16 16 21 25 13 15 25 28 20 13 15 13
12 11 11 11 12 14 17 20 22 25 27 26 25 26 30 31 29 31 31 33 33 34 35 34 33 32 34 34 31 29 26 26 22 22 17 19 16 21 18 12 16 20 29 22 15 15 16
13 12 12 12 14 15 18 20 23 25 27 26 26 26 29 29 30 31 32 33 34 33 33 34 34 33 34 35 28 28 30 26 25 19 15 18 16 16 17 22 20 19 30 23 17 16 18
15 14 13 13 14 16 18 21 23 25 27 25 27 26 28 30 31 31 31 32 34 34 33 33 32 32 35 31 35 24 31 29 23 12 17 14 14 20 22 17 10 18 27 23 22 20 20
17 15 15 14 15 17 19 21 23 26 26 26 26 27 29 28 30 30 31 32 33 34 32 33 32 35 35 33 31 33 31 26 17 16 16 14 14 21 18 11 13 10 24 23 20 18 20
18 17 16 15 16 18 19 21 23 26 26 25 27 27 28 28 29 30 31 32 32 34 32 32 34 34 34 32 34 32 27 21 17 16 13 12 16 17 11 17 11 9 23 22 20 17 22
19 18 17 17 18 19 20 21 23 25 25 25 26 28 29 28 29 30 30 31 32 32 33 33 34 33 33 36 34 25 19 16 12 11 9 13 16 11 12 16 7 9 21 22 19 14 21
20 19 18 18 19 20 20 22 23 24 25 26 27 28 29 28 28 29 29 30 32 31 31 32 32 34 34 33 27 24 17 15 11 12 8 12 11 10 10 11 6 8 23 24 18 11 23
21 21 21 20 20 20 21 22 23 24 25 26 27 28 29 29 27 28 29 29 30 31 30 30 32 32 32 27 25 23 19 18 11 13 9 11 7 8 10 7 7 14 24 23 13 8 25
23 22 21 21 22 22 22 23 23 24 25 26 27 28 29 28 28 27 27 29 29 29 29 29 31 30 30 28 25 22 18 18 12 13 13 9 7 8 9 5 4 16 23 17 14 13 22
25 24 23 23 23 23 23 23 23 25 25 27 28 28 29 29 27 27 26 27 27 27 28 30 28 28 27 26 24 22 18 16 11 15 8 7 7 6 6 5 5 19 15 14 13 17 17
27 26 25 24 24 23 23 23 24 25 25 26 27 28 28 28 27 26 26 27 27 27 27 27 26 26 26 25 23 21 20 15 16 9 6 5 7 7 6 7 12 15 10 14 14 15 16
Wind_Direction
343 346 348 349 350 349 350 350 351 352 352 353 352 351 351 350 349 348 348 347 345 342 341 340 336 332 329 330 326 322 321 319 315 313 309 306 301 296 287 285 282 276 273 270 268 265 261
331 336 338 343 346 347 347 349 350 351 352 352 352 353 351 351 349 348 347 346 345 345 346 346 343 335 335 334 328 328 324 321 318 314 310 307 301 297 290 286 282 281 278 273 269 266 263
326 332 336 336 341 345 347 348 349 350 351 350 351 351 350 350 350 348 347 348 347 345 342 342 338 334 344 337 331 329 327 324 321 316 311 308 304 299 297 293 287 285 282 276 270 267 264
320 324 330 331 337 342 344 346 347 348 349 349 349 349 349 349 349 349 348 346 347 346 341 339 338 337 335 337 333 330 329 325 322 316 313 309 306 303 298 295 291 286 282 278 274 269 263
315 318 325 326 332 340 342 344 345 346 347 348 348 348 349 348 348 348 347 346 344 345 344 340 338 335 337 333 335 331 330 326 323 320 318 315 315 312 307 302 300 296 292 289 284 276 272
308 312 318 322 329 336 339 341 343 344 346 347 347 347 347 347 347 347 343 345 346 344 338 337 344 337 337 335 332 333 332 329 328 325 325 327 327 323 324 322 312 306 298 293 287 282 274
300 308 313 320 329 334 338 341 343 344 345 345 347 347 347 346 346 347 345 339 337 339 347 344 343 341 334 335 333 336 335 333 333 333 335 334 332 342 335 327 317 309 302 297 295 293 282
294 301 307 318 327 333 338 339 342 343 345 345 346 346 346 346 346 348 346 343 341 337 340 342 341 339 339 337 334 338 339 337 335 337 339 338 344 342 336 327 320 312 306 302 301 299 290
286 289 300 314 325 332 336 338 340 343 344 344 344 345 345 345 344 346 348 346 341 340 337 340 340 339 340 338 336 339 341 338 337 338 340 334 335 337 336 334 329 324 315 312 306 304 293
274 284 298 310 321 329 334 337 340 342 343 344 344 345 346 346 343 344 346 344 342 341 337 341 340 341 340 338 336 340 342 342 337 337 337 330 332 334 335 335 341 331 327 318 312 309 299
272 284 296 307 316 324 331 335 338 342 343 344 344 345 346 349 344 346 343 344 343 342 338 341 340 339 339 342 337 340 342 343 338 337 332 333 331 338 339 344 341 332 332 318 310 302 294
273 285 295 304 314 323 329 334 338 341 342 343 343 345 345 345 346 345 344 345 343 341 343 340 339 340 340 340 341 339 342 347 343 337 335 332 332 341 338 342 339 339 335 325 313 323 324
271 285 294 303 314 324 330 334 338 340 341 342 342 344 347 346 344 344 345 344 342 345 342 340 338 338 339 341 340 343 344 352 354 345 345 342 339 346 350 342 344 347 346 350 357 339 329
268 277 288 302 317 325 331 335 337 339 340 340 340 342 345 347 344 345 344 343 345 343 341 340 339 338 341 344 343 342 346 347 354 351 340 351 354 357 346 350 346 350 354 346 337 341 324
267 269 280 300 317 325 331 334 337 339 340 341 339 340 344 345 345 345 343 348 344 342 340 339 339 341 344 343 342 344 346 346 350 354 356 345 343 341 352 353 1 349 355 336 318 315 319
256 262 277 299 316 323 329 334 336 338 340 340 340 340 344 344 344 343 346 346 342 341 340 341 342 344 341 343 343 343 345 348 348 351 349 341 333 340 348 353 1 358 352 352 351 339 338
247 260 277 299 314 321 326 332 335 338 339 338 338 339 343 344 344 347 347 345 342 343 342 343 342 339 341 342 341 343 343 342 349 342 343 337 338 335 341 349 1 5 1 1 341 338 344
246 259 276 295 310 319 325 330 334 337 339 338 338 338 342 343 344 346 347 345 343 342 342 341 341 342 340 341 341 342 341 343 342 340 339 347 339 339 333 9 11 14 4 2 5 354 350
246 258 274 292 305 315 323 328 333 336 339 336 338 338 342 343 345 346 345 344 343 343 343 343 342 343 341 339 340 339 342 340 339 339 340 342 345 344 354 8 355 4 8 3 356 357 6
246 260 275 289 302 312 320 325 330 334 337 337 338 338 341 347 347 345 344 345 344 343 342 343 339 341 342 339 339 335 332 339 333 330 335 336 335 335 338 333 338 1 8 7 5 6 351
246 259 273 287 299 310 318 324 329 333 336 336 339 340 341 341 344 345 343 343 343 345 344 343 343 342 342 341 337 339 335 336 338 347 337 346 339 341 338 336 9 16 10 3 6 13 9
248 258 270 283 295 308 316 322 327 332 334 337 337 338 339 340 340 340 342 342 341 343 342 343 342 340 338 336 334 332 334 335 337 336 334 340 336 342 340 359 350 10 9 6 8 10 7
248 256 266 279 290 304 313 320 325 331 332 334 336 338 337 337 338 338 341 340 340 341 341 340 340 339 338 340 335 329 327 324 317 324 327 331 341 343 352 349 355 17 10 3 4 20 18
249 256 265 277 288 300 309 316 322 329 334 333 335 336 335 336 336 338 338 338 337 339 337 339 340 340 340 337 335 335 336 335 331 331 322 324 337 341 339 347 28 27 10 1 1 27 17
248 257 265 276 287 297 305 312 318 323 329 333 334 335 335 335 335 335 336 336 336 337 338 339 342 340 341 342 345 346 345 343 342 343 333 335 331 343 350 345 19 3 1 358 -0 12 14
250 258 265 274 284 293 301 308 314 319 325 330 333 335 335 334 334 334 335 337 338 339 339 341 343 343 345 345 346 347 348 343 341 338 342 335 321 334 340 344 3 5 354 355 356 23 8
252 258 265 272 280 289 297 303 310 315 320 326 329 331 333 332 332 332 334 336 337 338 338 340 344 345 347 348 348 348 346 343 339 334 337 331 335 340 344 346 19 0 355 356 32 1 358
251 257 264 271 277 286 294 300 306 312 316 322 325 328 329 330 329 330 331 333 335 337 339 342 341 346 347 350 348 348 343 345 333 330 335 310 316 332 327 341 353 355 359 18 356 352 357
251 255 262 269 274 282 290 296 303 309 313 318 322 324 326 327 328 328 329 330 331 332 336 340 342 343 346 346 346 342 342 336 333 327 325 294 300 290 290 295 322 341 358 354 354 353 358